WA6MEM Weather Reports


Display with metric or nautical units.
time (UTC)temp
F
wind
direction
speed
MPH
gust
MPH
rain 1hr
in
rain 24hr
in
rain mn
in
humidity
%
barometer
mb
20210622051015 58 297 0.0 0.0 0.00 0.00 0.01 91 1013.0
20210622050506 58 298 0.0 0.0 0.00 0.00 0.01 91 1013.0
20210622050042 58 259 0.0 0.0 0.00 0.00 0.01 90 1012.8
20210622045506 58 264 0.0 0.0 0.00 0.00 0.01 90 1012.8
20210622045010 58 266 0.0 0.0 0.00 0.00 0.01 91 1012.8
20210622044513 58 267 0.0 0.0 0.00 0.00 0.01 92 1012.8
20210622044027 58 271 0.0 0.0 0.00 0.00 0.01 92 1012.8
20210622043505 57 288 0.0 0.0 0.00 0.00 0.01 92 1012.8
20210622043026 58 294 0.0 0.0 0.00 0.00 0.01 92 1012.6
20210622042508 58 313 0.0 0.0 0.00 0.00 0.01 92 1012.6
20210622042005 58 286 0.0 0.0 0.00 0.00 0.01 92 1012.6
20210622041508 58 290 0.0 0.0 0.00 0.00 0.01 92 1012.6
20210622041005 58 292 0.0 0.0 0.00 0.00 0.01 92 1012.6
20210622040504 58 306 0.0 0.0 0.00 0.00 0.01 91 1012.6
20210622040013 58 277 0.0 0.0 0.00 0.00 0.01 91 1012.5
20210622035508 58 295 0.0 0.0 0.00 0.00 0.01 90 1012.5
20210622035005 58 301 0.0 0.0 0.00 0.00 0.01 90 1012.5
20210622034511 58 311 0.0 0.0 0.00 0.00 0.01 90 1012.4
20210622034003 58 299 0.0 0.0 0.00 0.00 0.01 90 1012.4
20210622033503 58 305 0.0 0.0 0.00 0.00 0.01 90 1012.4
20210622033004 58 309 0.0 0.0 0.00 0.00 0.01 90 1012.3
20210622032515 59 290 0.0 0.0 0.00 0.00 0.01 89 1012.3
20210622032007 59 288 0.0 0.0 0.00 0.00 0.01 89 1012.3
20210622031507 59 300 0.0 0.0 0.00 0.00 0.01 89 1012.5
20210622031003 59 308 0.0 0.0 0.00 0.00 0.01 89 1012.5
20210622030503 58 265 0.0 0.0 0.00 0.00 0.01 89 1012.5
20210622030003 58 301 0.0 0.0 0.00 0.00 0.01 90 1012.4
20210622025502 58 273 0.0 0.0 0.00 0.00 0.01 90 1012.4
20210622025002 58 313 0.0 0.0 0.00 0.00 0.01 91 1012.4
20210622024512 58 314 1.0 0.0 0.00 0.00 0.01 91 1012.6
20210622024001 58 285 2.0 0.0 0.00 0.00 0.01 91 1012.6
20210622023503 58 273 3.0 0.0 0.00 0.00 0.01 91 1012.6
20210622023003 58 302 2.0 0.0 0.00 0.00 0.01 91 1012.7
20210622022501 59 280 2.0 0.0 0.00 0.00 0.01 91 1012.7
20210622022003 59 292 2.0 0.0 0.00 0.00 0.01 90 1012.7
20210622021501 59 267 2.0 0.0 0.00 0.00 0.01 90 1012.6
20210622021001 59 272 2.0 0.0 0.00 0.00 0.01 90 1012.6
20210622020501 59 275 2.0 0.0 0.00 0.00 0.01 90 1012.6
20210622020001 59 252 3.0 0.0 0.00 0.00 0.01 90 1012.6
20210622015606 59 270 3.0 0.0 0.00 0.00 0.01 89 1012.6
20210622014720 60 283 3.0 0.0 0.00 0.00 0.01 89 1012.6
20210622014127 60 313 3.0 0.0 0.00 0.00 0.01 88 1012.6
20210622013559 60 257 3.0 0.0 0.00 0.00 0.01 88 1012.6
20210622013156 61 297 2.0 0.0 0.00 0.00 0.01 87 1012.5
20210622012626 61 286 3.0 0.0 0.00 0.00 0.01 88 1012.5
20210622012146 61 228 3.0 0.0 0.00 0.00 0.01 86 1012.5
20210622011743 61 239 2.0 0.0 0.00 0.00 0.01 86 1012.5
20210622011127 62 252 2.0 0.0 0.00 0.00 0.01 86 1012.5
20210622010559 62 252 3.0 0.0 0.00 0.00 0.01 85 1012.5
20210622010349 62 243 3.0 0.0 0.00 0.00 0.01 85 1012.7
20210622005602 63 300 2.0 0.0 0.00 0.00 0.01 83 1012.7
20210622005059 64 263 2.0 0.0 0.00 0.00 0.01 83 1012.7
20210622004654 64 296 2.0 0.0 0.00 0.00 0.01 84 1012.7
20210622004057 63 248 2.0 0.0 0.00 0.00 0.01 85 1012.7
20210622003557 63 222 3.0 0.0 0.00 0.00 0.01 84 1012.7
20210622003219 64 241 2.0 0.0 0.00 0.00 0.01 83 1013.0
20210622002558 64 234 2.0 0.0 0.00 0.00 0.01 84 1013.0
20210622002120 63 285 2.0 0.0 0.00 0.00 0.01 85 1013.0
20210622001659 64 236 2.0 0.0 0.00 0.00 0.01 84 1012.9
20210622001103 63 248 3.0 0.0 0.00 0.00 0.01 84 1012.9
20210622000633 64 265 2.0 0.0 0.00 0.00 0.01 83 1012.9
20210622000118 64 231 2.0 0.0 0.00 0.00 0.01 83 1013.1
20210621235602 64 276 2.0 0.0 0.00 0.00 0.01 85 1013.1
20210621235057 63 233 3.0 0.0 0.00 0.00 0.01 86 1013.1
20210621234647 63 261 4.0 0.0 0.00 0.00 0.01 86 1013.2
20210621234102 63 296 4.0 0.0 0.00 0.00 0.01 84 1013.2
20210621233557 64 272 3.0 0.0 0.00 0.00 0.01 85 1013.2
20210621233242 64 267 4.0 0.0 0.00 0.00 0.01 83 1013.1
20210621232611 64 254 4.0 0.0 0.00 0.00 0.01 84 1013.1
20210621232055 64 267 2.0 0.0 0.00 0.00 0.01 82 1013.1
20210621231707 65 306 3.0 0.0 0.00 0.00 0.01 83 1013.1
20210621231055 65 275 3.0 0.0 0.00 0.00 0.01 82 1013.1
20210621230555 65 292 3.0 0.0 0.00 0.00 0.01 82 1013.1
20210621230121 65 274 3.0 0.0 0.00 0.00 0.01 81 1013.3
20210621225555 65 261 3.0 0.0 0.00 0.00 0.01 81 1013.3
20210621225055 65 256 3.0 0.0 0.00 0.00 0.01 81 1013.3
20210621224655 66 261 3.0 0.0 0.00 0.00 0.01 81 1013.3
20210621224054 66 311 3.0 0.0 0.00 0.00 0.01 79 1013.3
20210621223622 67 321 2.0 0.0 0.00 0.00 0.01 78 1013.3
20210621223239 68 266 1.0 0.0 0.00 0.00 0.01 76 1013.4
20210621222553 68 231 1.0 0.0 0.00 0.00 0.01 78 1013.4
20210621222105 68 299 2.0 0.0 0.00 0.00 0.01 78 1013.4
20210621221631 68 264 2.0 0.0 0.00 0.00 0.01 75 1013.5
20210621221139 69 255 1.0 0.0 0.00 0.00 0.01 77 1013.5
20210621220552 69 259 1.0 0.0 0.00 0.00 0.01 75 1013.5
20210621220144 69 273 1.0 0.0 0.00 0.00 0.01 77 1013.7
20210621215551 68 222 1.0 0.0 0.00 0.00 0.01 79 1013.7
20210621215104 68 233 1.0 0.0 0.00 0.00 0.01 79 1013.7
20210621214558 68 213 1.0 0.0 0.00 0.00 0.01 78 1013.8
20210621214054 68 177 1.0 0.0 0.00 0.00 0.01 77 1013.8
20210621213550 68 227 1.0 0.0 0.00 0.00 0.01 78 1013.8
20210621213111 69 240 1.0 0.0 0.00 0.00 0.01 77 1013.9
20210621212549 68 212 1.0 0.0 0.00 0.00 0.01 78 1013.9
20210621212047 68 240 0.0 0.0 0.00 0.00 0.01 80 1013.9
20210621211636 68 160 0.0 0.0 0.00 0.00 0.01 79 1013.9
20210621211105 68 188 0.0 0.0 0.00 0.00 0.01 80 1013.9
20210621210605 67 229 1.0 0.0 0.00 0.00 0.01 79 1013.9
20210621210142 67 225 1.0 0.0 0.00 0.00 0.01 79 1013.9
20210621205547 67 172 1.0 0.0 0.00 0.00 0.01 80 1013.9
20210621205052 67 215 1.0 0.0 0.00 0.00 0.01 80 1013.9
20210621204641 67 230 1.0 0.0 0.00 0.00 0.01 80 1014.0
20210621204059 68 196 1.0 0.0 0.00 0.00 0.01 79 1014.0
20210621203544 67 260 1.0 0.0 0.00 0.00 0.01 81 1014.0
20210621203101 67 175 1.0 0.0 0.00 0.00 0.01 81 1014.1
20210621202551 66 237 1.0 0.0 0.00 0.00 0.01 83 1014.1
20210621202043 66 234 1.0 0.0 0.00 0.00 0.01 82 1014.1
20210621201558 66 220 1.0 0.0 0.00 0.00 0.01 82 1014.3
20210621201052 67 192 1.0 0.0 0.00 0.00 0.01 80 1014.3
20210621200543 67 171 0.0 0.0 0.00 0.00 0.01 82 1014.3
20210621200129 66 244 1.0 0.0 0.00 0.00 0.01 85 1014.4
20210621195542 66 171 1.0 0.0 0.00 0.00 0.01 83 1014.4
20210621195047 66 225 1.0 0.0 0.00 0.00 0.01 82 1014.4
20210621194640 66 231 1.0 0.0 0.00 0.00 0.01 82 1014.6
20210621194041 67 265 0.0 0.0 0.00 0.00 0.01 82 1014.6
20210621193541 66 240 1.0 0.0 0.00 0.00 0.01 85 1014.6
20210621193129 66 245 1.0 0.0 0.00 0.00 0.01 84 1014.5
20210621192540 66 223 1.0 0.0 0.00 0.00 0.01 82 1014.5
20210621192044 67 207 1.0 0.0 0.00 0.00 0.01 81 1014.5
20210621191618 67 206 1.0 0.0 0.00 0.00 0.01 82 1014.6
20210621191039 67 233 1.0 0.0 0.00 0.00 0.01 81 1014.6
20210621190538 67 229 1.0 0.0 0.00 0.00 0.01 81 1014.6
20210621190146 67 257 1.0 0.0 0.00 0.00 0.01 82 1014.8
20210621185547 66 221 0.0 0.0 0.00 0.00 0.01 83 1014.8
20210621185035 66 199 0.0 0.0 0.00 0.00 0.01 84 1014.8
20210621184552 65 234 1.0 0.0 0.00 0.00 0.01 85 1015.0
20210621184034 64 171 1.0 0.0 0.00 0.00 0.01 85 1015.0
20210621183534 64 147 1.0 0.0 0.00 0.00 0.01 84 1015.0
20210621183106 64 196 1.0 0.0 0.00 0.00 0.01 85 1014.9
20210621182536 65 193 1.0 0.0 0.00 0.00 0.01 84 1014.9
20210621182033 65 202 1.0 0.0 0.00 0.00 0.01 85 1014.9
20210621181627 65 246 1.0 0.0 0.00 0.00 0.01 85 1014.7
20210621181035 65 230 1.0 0.0 0.00 0.00 0.01 84 1014.7
20210621180532 65 187 1.0 0.0 0.00 0.00 0.01 84 1014.7
20210621175532 65 235 0.0 0.0 0.00 0.00 0.01 85 1014.7
20210621175032 65 226 0.0 0.0 0.00 0.00 0.01 86 1014.7
20210621174623 65 225 0.0 0.0 0.00 0.00 0.01 85 1014.7
20210621174041 65 231 0.0 0.0 0.00 0.00 0.01 85 1014.7
20210621173530 65 213 0.0 0.0 0.00 0.00 0.01 85 1014.7
20210621173049 65 254 0.0 0.0 0.00 0.00 0.01 89 1014.7
20210621172528 64 244 0.0 0.0 0.00 0.00 0.01 89 1014.7
20210621172046 63 278 0.0 0.0 0.00 0.00 0.01 89 1014.7
20210621171600 63 217 0.0 0.0 0.00 0.00 0.01 90 1014.6
20210621171025 63 227 1.0 0.0 0.00 0.00 0.01 90 1014.6
20210621170556 63 219 1.0 0.0 0.00 0.00 0.01 91 1014.6
20210621170045 62 200 0.0 0.0 0.00 0.00 0.01 91 1014.3
20210621165530 62 214 0.0 0.0 0.00 0.00 0.01 92 1014.3
20210621165023 62 175 0.0 0.0 0.00 0.00 0.01 92 1014.3
20210621164533 62 227 0.0 0.0 0.00 0.00 0.01 93 1014.2
20210621164021 62 179 0.0 0.0 0.00 0.00 0.01 93 1014.2
20210621163534 62 182 0.0 0.0 0.00 0.00 0.01 94 1014.2
20210621163043 61 213 0.0 0.0 0.00 0.00 0.01 95 1014.3
20210621162518 61 190 0.0 0.0 0.00 0.00 0.01 95 1014.3
20210621162017 61 160 0.0 0.0 0.00 0.00 0.01 96 1014.3
20210621161526 60 30 0.0 0.0 0.00 0.00 0.01 97 1014.3
20210621161015 60 360 0.0 0.0 0.00 0.00 0.01 97 1014.3
20210621160514 59 36 0.0 0.0 0.00 0.00 0.01 97 1014.3
20210621160044 59 138 0.0 0.0 0.00 0.00 0.01 97 1014.3
20210621155512 59 48 0.0 0.0 0.00 0.00 0.01 98 1014.3
20210621155012 58 22 0.0 0.0 0.00 0.00 0.01 97 1014.3
20210621154536 58 131 1.0 0.0 0.00 0.00 0.01 98 1014.5
20210621154015 58 104 1.0 0.0 0.00 0.00 0.01 98 1014.5
20210621153513 58 106 0.0 0.0 0.00 0.00 0.01 98 1014.5
20210621153034 58 90 0.0 0.0 0.00 0.00 0.01 98 1014.4
20210621152509 58 34 0.0 0.0 0.00 0.00 0.01 98 1014.4
20210621152009 57 92 1.0 0.0 0.00 0.00 0.01 98 1014.4
20210621151508 57 50 1.0 0.0 0.00 0.00 0.01 98 1014.3
20210621151007 58 58 0.0 0.0 0.00 0.00 0.01 98 1014.3
20210621150507 57 360 0.0 0.0 0.00 0.00 0.01 98 1014.3
20210621150025 57 66 0.0 0.0 0.00 0.00 0.01 98 1013.9
20210621145506 57 38 0.0 0.0 0.00 0.00 0.01 98 1013.9
20210621145006 57 92 0.0 0.0 0.00 0.00 0.01 98 1013.9
20210621144510 57 53 0.0 0.0 0.00 0.00 0.01 98 1013.9
20210621144005 57 90 0.0 0.0 0.00 0.00 0.01 98 1013.9
20210621143505 57 20 0.0 0.0 0.00 0.00 0.01 98 1013.9
20210621143005 57 51 0.0 0.0 0.00 0.00 0.01 98 1013.9
20210621142507 57 52 0.0 0.0 0.00 0.00 0.01 98 1013.9
20210621142011 57 84 0.0 0.0 0.00 0.00 0.01 98 1013.9
20210621141531 57 138 0.0 0.0 0.00 0.00 0.01 98 1013.7
20210621141005 57 48 0.0 0.0 0.00 0.00 0.01 98 1013.7
20210621140504 57 47 0.0 0.0 0.00 0.00 0.01 98 1013.7
20210621140035 57 57 0.0 0.0 0.00 0.00 0.01 98 1013.7
20210621135504 57 56 0.0 0.0 0.00 0.00 0.01 98 1013.7
20210621135004 57 82 0.0 0.0 0.00 0.00 0.01 98 1013.7
20210621134518 57 46 0.0 0.0 0.00 0.00 0.01 98 1013.7
20210621134006 57 48 0.0 0.0 0.00 0.00 0.01 98 1013.7
20210621133503 57 48 0.0 0.0 0.00 0.00 0.01 98 1013.7
20210621133003 57 32 0.0 0.0 0.00 0.00 0.01 98 1013.4
20210621132505 57 75 0.0 0.0 0.00 0.00 0.01 98 1013.4
20210621132002 57 45 0.0 0.0 0.00 0.00 0.01 98 1013.4
20210621131527 57 232 0.0 0.0 0.00 0.00 0.01 98 1013.3
20210621131002 57 232 0.0 0.0 0.00 0.00 0.01 98 1013.3
20210621130503 56 229 0.0 0.0 0.00 0.00 0.01 97 1013.3
20210621130001 56 229 0.0 0.0 0.00 0.00 0.01 97 1013.2
20210621125501 56 229 0.0 0.0 0.00 0.00 0.01 97 1013.2
20210621125001 56 229 0.0 0.0 0.00 0.00 0.01 97 1013.2
20210621124729 56 229 0.0 0.0 0.00 0.00 0.01 97 1013.1
20210621124100 56 229 0.0 0.0 0.00 0.00 0.01 97 1013.1
20210621123559 57 229 0.0 0.0 0.00 0.00 0.01 98 1013.1
20210621123147 56 214 0.0 0.0 0.00 0.00 0.01 98 1013.0
20210621122613 57 214 0.0 0.0 0.00 0.00 0.01 98 1013.0
20210621122059 57 155 0.0 0.0 0.00 0.00 0.01 98 1013.0
20210621121630 57 155 0.0 0.0 0.00 0.00 0.01 98 1012.6
20210621121058 57 155 0.0 0.0 0.00 0.00 0.01 98 1012.6
20210621120601 57 155 0.0 0.0 0.00 0.00 0.01 98 1012.6
20210621120204 57 155 0.0 0.0 0.00 0.00 0.01 98 1012.5
20210621115602 57 155 0.0 0.0 0.00 0.00 0.01 98 1012.5
20210621115058 57 85 0.0 0.0 0.00 0.00 0.01 98 1012.5
20210621114726 56 85 0.0 0.0 0.00 0.00 0.01 97 1012.3
20210621114124 56 85 0.0 0.0 0.00 0.00 0.01 97 1012.3
20210621113557 56 85 0.0 0.0 0.00 0.00 0.01 97 1012.3
20210621113136 57 85 0.0 0.0 0.00 0.00 0.01 97 1012.3
20210621112556 56 85 0.0 0.0 0.00 0.00 0.01 97 1012.3
20210621112139 56 85 0.0 0.0 0.00 0.00 0.01 97 1012.3
20210621111630 56 85 0.0 0.0 0.00 0.00 0.01 97 1012.2
20210621110556 56 85 0.0 0.0 0.00 0.00 0.01 97 1012.2
20210621110137 56 85 0.0 0.0 0.00 0.00 0.01 97 1012.1
20210621105555 56 85 0.0 0.0 0.00 0.00 0.01 97 1012.1
20210621105055 56 85 0.0 0.0 0.00 0.00 0.01 97 1012.1
20210621104717 56 85 0.0 0.0 0.00 0.00 0.01 97 1011.9
20210621104054 56 85 0.0 0.0 0.00 0.00 0.01 97 1011.9
20210621103554 56 85 0.0 0.0 0.00 0.00 0.01 97 1011.9
20210621103200 56 85 0.0 0.0 0.00 0.00 0.01 97 1011.9
20210621102553 56 85 0.0 0.0 0.00 0.00 0.01 97 1011.9
20210621102058 56 85 0.0 0.0 0.00 0.00 0.01 97 1011.9
20210621101614 57 85 0.0 0.0 0.00 0.00 0.01 97 1012.0
20210621101054 57 85 0.0 0.0 0.00 0.00 0.01 97 1012.0
20210621100553 57 84 0.0 0.0 0.00 0.00 0.01 97 1012.0
20210621100152 57 84 0.0 0.0 0.00 0.00 0.01 97 1012.0
20210621095601 57 84 0.0 0.0 0.00 0.00 0.01 97 1012.0
20210621095053 57 84 0.0 0.0 0.00 0.00 0.01 97 1012.0
20210621094646 57 84 0.0 0.0 0.00 0.00 0.01 97 1011.9
20210621094057 57 84 0.0 0.0 0.00 0.00 0.01 97 1011.9
20210621093551 57 84 0.0 0.0 0.00 0.00 0.01 97 1011.9
20210621093123 57 84 0.0 0.0 0.00 0.00 0.01 97 1011.9
20210621092550 57 84 0.0 0.0 0.00 0.00 0.01 97 1011.9
20210621092053 57 84 0.0 0.0 0.00 0.00 0.01 97 1011.9
20210621091637 57 84 0.0 0.0 0.00 0.00 0.01 97 1011.7
20210621091051 57 84 0.0 0.0 0.00 0.00 0.01 97 1011.7
20210621090550 57 84 0.0 0.0 0.00 0.00 0.01 97 1011.7
20210621090057 57 84 0.0 0.0 0.00 0.00 0.01 97 1011.8
20210621085555 57 84 0.0 0.0 0.00 0.00 0.01 97 1011.8
20210621085057 57 84 0.0 0.0 0.00 0.00 0.01 97 1011.8
20210621084624 57 84 0.0 0.0 0.00 0.00 0.01 97 1011.8
20210621084051 57 60 0.0 0.0 0.00 0.00 0.01 97 1011.8
20210621083548 57 250 0.0 0.0 0.00 0.00 0.01 97 1011.8
20210621083155 57 240 0.0 0.0 0.00 0.00 0.01 97 1011.9
20210621082553 57 240 0.0 0.0 0.00 0.00 0.01 97 1011.9
20210621082048 57 240 0.0 0.0 0.00 0.00 0.01 97 1011.9
20210621081621 57 240 0.0 0.0 0.00 0.00 0.01 97 1011.9
20210621081046 57 240 0.0 0.0 0.00 0.00 0.00 97 1011.9
20210621080552 57 240 0.0 0.0 0.00 0.00 0.00 97 1011.9
20210621080144 56 240 0.0 0.0 0.00 0.00 0.00 97 1012.0
20210621075619 56 240 0.0 0.0 0.00 0.00 0.00 96 1012.0
20210621075045 56 240 0.0 0.0 0.00 0.00 0.00 97 1012.0
20210621074624 56 240 0.0 0.0 0.00 0.00 0.00 97 1012.1
20210621074101 56 240 0.0 0.0 0.00 0.00 0.00 97 1012.1
20210621073547 56 240 0.0 0.0 0.00 0.00 0.00 97 1012.1
20210621073048 56 240 0.0 0.0 0.00 0.00 0.00 97 1012.1
20210621072608 56 240 0.0 0.0 0.00 0.00 0.00 97 1012.1
20210621072101 55 240 0.0 0.0 0.00 0.00 0.00 96 1012.1
20210621071614 55 240 0.0 0.0 0.00 0.00 0.00 96 1012.0
20210621071039 55 240 0.0 0.0 0.00 0.00 0.00 96 1012.0
20210621070539 55 240 0.0 0.0 0.00 0.00 0.00 96 1012.0
20210621070101 55 240 0.0 0.0 0.00 0.00 0.00 96 1012.1
20210621065538 55 240 0.0 0.0 0.00 0.00 0.00 96 1012.1
20210621065038 55 240 0.0 0.0 0.00 0.00 0.00 96 1012.1
20210621064547 55 240 0.0 0.0 0.00 0.00 0.00 96 1012.1
20210621064115 55 240 0.0 0.0 0.00 0.00 0.00 96 1012.1
20210621063536 55 240 0.0 0.0 0.00 0.00 0.00 95 1012.1
20210621063110 55 240 0.0 0.0 0.00 0.00 0.00 96 1012.2
20210621062535 55 240 0.0 0.0 0.00 0.00 0.00 96 1012.2
20210621062035 56 240 0.0 0.0 0.00 0.00 0.00 96 1012.2
20210621061551 56 240 0.0 0.0 0.00 0.00 0.00 96 1012.2
20210621061034 56 240 0.0 0.0 0.00 0.00 0.00 96 1012.2
20210621060536 56 240 0.0 0.0 0.00 0.00 0.00 96 1012.2
20210621060055 56 240 0.0 0.0 0.00 0.00 0.00 95 1012.3
20210621055533 56 240 0.0 0.0 0.00 0.00 0.00 95 1012.3
20210621055033 56 240 0.0 0.0 0.00 0.00 0.00 95 1012.3
20210621054601 56 240 0.0 0.0 0.00 0.00 0.00 95 1012.2
20210621054036 56 240 0.0 0.0 0.00 0.00 0.00 95 1012.2
20210621053532 56 240 0.0 0.0 0.00 0.00 0.00 95 1012.2
20210621053055 56 240 0.0 0.0 0.00 0.00 0.00 95 1012.1
20210621052531 56 240 0.0 0.0 0.00 0.00 0.00 95 1012.1
20210621052031 56 240 0.0 0.0 0.00 0.00 0.00 95 1012.1
20210621051552 56 240 0.0 0.0 0.00 0.00 0.00 95 1012.3